Other Public Products
Issued by NWS Charleston, SC

Current Version | Previous Version | Text Only | Print | Product List | Glossary Off
Versions: 1 2 3 4 5 6 7 8 9 10 11 12 13 14 15 16 17 18 19 20 21 22 23 24 25 26 27 28 29 30 31 32 33 34 35 36 37 38 39 40 41 42 43 44 45 46 47 48 49 50

569
FPUS82 KCHS 191338
OPUCHS

TEST...KCHS/KSAV Gateway Observations...TEST
National Weather Service Charleston SC
900 AM EDT TUE SEP 19 2017

NOTE: "fair" indicates few or no clouds below 12,000 feet with no
significant weather and/or obstructions to visibility.

SCZ050-WAZ558-NCZ071-TXZ119-213-PAZ071-DCZ001-FLZ074-172-MI076-
NYZ176-178-MAZ016-IL014-TNZ027-NJZ106-GAZ044-MD014-191400-

...Gateway Observations for Charleston International...

CITY           SKY/WX    TMP DP  RH WIND       PRES   REMARKS
Chas Airport   SUNNY     75  70  84 CALM      30.00R
Seattle        LGT RAIN  50  48  93 S8        29.70S
Charlotte      MOSUNNY   71  68  90 N7        30.05R
Dallas DFW     MOCLDY    77  74  90 S14       29.91R
Dallas Love    MOCLDY    77  72  84 S10       29.92S
Philladelphia  PTSUNNY   74  67  78 N16G28    29.98S
Wash National  CLOUDY    72  67  84 N12       30.00R
Baltimore      PTSUNNY   72  67  84 N7        29.98S
Miami          MOSUNNY   84  78  82 VRB5      29.92S HX  95
Detroit        CLOUDY    68  63  84 NE8       30.00F
Newark         PTSUNNY   72  66  81 NE17G25   30.00F
Laguardia      PTSUNNY   72  66  81 NE16G24   30.00S
J F K          PTSUNNY   71  65  81 N16G26    30.01R
Boston Logan   FOG       63  63 100 NE12      30.13R VSB 1
Ft. Lauderdale MOSUNNY   81  78  91 NW5       29.91R
Chicago O`Hare PTSUNNY   67  64  90 N5        29.95R
Chicago Midway PTSUNNY   68  65  90 NE6       29.94S FOG
Houston Bush   MOSUNNY   76  75  97 CALM      29.96S
Houston Hobby  MOSUNNY   80  76  87 S6        29.95S
Nashville      CLOUDY    71  67  87 S6        29.99S
Atlanta        MOSUNNY   72  64  76 N5        30.04R

$$

GAZ044-118-TXZ119-213-NCZ071-DCZ001-MDZ014-506-PAZ021-071-NJZ106-
NYZ176-178-MAZ106-OHZ011-021-055-MIZ076-KYZ091-ILZ014-INZ047-
MNZ060-ONZ431-191400-

...Gateway Observations for Savannah International...

CITY           SKY/WX    TMP DP  RH WIND       PRES   REMARKS
Savannah Arpt  MOSUNNY   77  69  76 W5        30.01R
Atlanta        MOSUNNY   72  64  76 N5        30.04R
Charlotte      MOSUNNY   71  68  90 N7        30.05R
Dallas DFW     MOCLDY    77  74  90 S14       29.91R
Houston Bush   MOSUNNY   76  75  97 CALM      29.96S
Wash National  CLOUDY    72  67  84 N12       30.00R
Wash Dulles    CLOUDY    69  66  90 NW12      30.02S
Baltimore      PTSUNNY   72  67  84 N7        29.98S
Philadelphia   PTSUNNY   74  67  78 N16G28    29.98S
Newark         PTSUNNY   72  66  81 NE17G25   30.00F
Laguardia      PTSUNNY   72  66  81 NE16G24   30.00S
J F K          PTSUNNY   71  65  81 N16G26    30.01R
Boston         FOG       63  63 100 NE12      30.13R VSB 1
Pittsburg      CLOUDY    67  64  90 SE3       30.05
Akron          MOSUNNY   70  62  76 SE7       30.02S
Cleveland      CLOUDY    74  63  68 S5        30.01S
Cincinnati     LGT RAIN  70  68  93 S6        29.99R
Columbus       PTSUNNY   69  65  90 CALM      30.00R
Detroit        CLOUDY    68  63  84 NE8       30.00F
Chicago O`Hare PTSUNNY   67  64  90 N5        29.95R
Minneapolis    PTSUNNY   61  59  93 E9        29.92S
Indianapolis   LGT RAIN  68  67  96 S10       29.97R
Toronto Canada CLOUDY    70  66  88 N7        30.04R

$$




USA.gov is the U.S. government's official web portal to all federal, state and local government web resources and services.